Location: Kerberlivit
(48.2787°N, 4.5413°W)
Time: 10:13:40
(UTC+00:00)

Cosmos 1805 Rocket - Pass Details

Date: 18 February 2020
Orbit: 606 x 630 km, 82.5° (Epoch: 29 March)

Event Time Altitude Azimuth Distance (km) Brightness Sun altitude
Rises 06:41:54 0° 340° (NNW) 2,878 6.7 -7.2°
Reaches altitude 10° 06:44:22 10° 328° (NNW) 1,967 5.7 -6.8°
Maximum altitude 06:48:00 26° 271° (W) 1,196 4.5 -6.2°
Drops below altitude 10° 06:51:36 10° 215° (SW) 1,954 5.9 -5.6°
Sets 06:54:04 0° 203° (SSW) 2,854 6.9 -5.2°
